CAPE
0 213 743 503 247 13 2 98 146 135 142 101 79 17 9 8 7 4 3 7 6 14 13 16 13 14 46 55 43 19 19 34 32 14 0 0 1 7 28 17 13 28 51
0 377 750 573 302 140 2 78 123 213 149 64 15 20 16 5 7 3 5 7 8 6 7 8 8 13 19 2 0 0 0 9 5 0 3 10 12 26 28 34 25 27 28
64 562 734 630 398 249 35 75 88 200 190 70 20 16 6 8 6 8 5 6 4 5 6 6 6 4 0 0 0 0 0 0 0 0 0 0 27 35 35 30 32 34 21
180 598 724 680 498 364 69 95 152 194 168 45 27 25 6 7 5 4 7 6 4 4 5 4 2 0 0 0 0 0 0 0 0 0 0 8 23 22 13 8 6 6 6
372 606 708 733 577 444 144 71 178 212 159 89 101 20 4 4 5 7 7 7 5 6 7 5 2 2 0 0 0 0 0 0 0 0 0 0 14 20 6 6 0 1 0
588 618 644 764 635 494 186 29 212 232 202 165 113 24 8 3 7 7 7 8 10 7 7 6 4 4 2 0 0 8 11 1 0 0 0 9 1 16 5 4 4 0 0
652 630 641 787 717 547 244 18 243 211 141 127 21 24 12 9 6 8 6 9 7 7 8 4 6 10 2 0 0 11 3 0 0 0 7 20 16 13 6 6 2 1 1
592 553 745 778 710 391 197 66 191 239 102 17 6 22 13 11 5 6 7 5 5 5 7 9 9 6 0 0 11 13 0 0 0 0 4 11 8 13 7 3 4 2 1
535 569 637 693 593 312 143 92 128 88 4 2 5 18 9 7 6 3 6 5 5 4 4 12 10 0 0 6 11 5 0 0 0 0 0 1 6 8 2 3 4 1 0
506 448 507 456 383 259 123 71 79 2 0 3 5 8 17 8 8 5 2 7 4 5 9 12 8 0 0 5 7 0 0 0 0 0 0 0 6 2 5 5 5 3 0
403 396 451 285 179 89 49 21 7 0 0 4 7 19 9 8 3 3 0 7 10 8 13 8 5 0 0 0 0 0 0 0 0 0 0 10 5 2 3 6 4 4 1
371 442 437 271 138 31 3 4 4 0 0 7 9 8 6 3 3 1 2 4 7 21 16 10 0 0 0 0 0 0 0 0 0 0 0 10 13 11 12 6 4 3 2
394 442 435 276 148 21 2 4 4 0 1 4 12 4 1 2 1 0 4 6 0 16 12 0 0 0 0 0 0 0 0 0 0 0 0 0 24 18 19 14 5 0 1
209 488 424 261 87 18 1 0 0 0 0 3 2 4 0 2 1 0 1 0 0 0 0 0 0 0 0 0 0 0 0 0 0 0 0 0 0 24 22 17 14 1 3
0 352 307 172 61 7 0 0 0 0 0 1 1 0 1 1 1 0 0 0 0 0 0 0 0 0 0 0 0 0 0 0 0 0 0 0 0 7 31 17 19 14 2
0 28 325 128 24 1 0 0 0 0 0 0 0 1 0 0 0 0 0 0 0 0 0 0 0 0 0 0 0 0 0 0 0 0 0 0 0 0 21 51 30 24 9
0 0 34 45 2 2 0 0 0 0 0 0 0 0 0 1 0 0 0 0 0 0 0 0 0 0 0 0 0 0 0 0 0 0 0 0 0 0 0 37 52 40 13
0 0 0 88 2 2 0 0 0 0 0 0 0 0 0 0 0 0 0 0 0 0 0 0 0 0 0 0 0 0 0 0 0 0 0 0 0 0 0 0 35 37 10
0 0 1 71 13 3 2 0 0 0 0 0 0 0 0 0 0 0 0 0 0 0 0 0 0 0 0 0 0 0 0 0 0 0 0 0 0 0 0 0 1 0 0
0 0 0 15 35 3 5 9 10 1 0 0 0 0 0 0 0 0 0 0 0 0 0 0 0 0 0 0 0 0 0 0 0 0 0 0 0 0 0 0 0 0 0
5 5 0 12 37 35 41 31 18 2 1 0 0 0 0 0 0 0 0 0 0 0 0 0 0 0 0 0 0 0 0 0 0 0 0 0 0 0 0 0 0 0 0
7 0 35 98 35 88 6 35 21 16 1 0 0 0 0 0 0 0 0 0 0 0 0 0 0 0 0 0 0 0 0 0 0 0 0 0 0 0 0 0 0 0 0
7 0 0 101 107 140 46 41 31 10 3 0 0 0 0 0 0 0 0 0 0 0 0 0 0 0 0 0 0 0 0 0 0 0 0 0 0 0 0 0 0 0 0
0 0 0 141 191 180 101 34 21 0 0 1 0 0 0 0 0 0 0 0 0 0 0 0 0 0 0 0 0 0 0 0 0 0 0 0 0 0 0 0 0 0 0
0 0 0 52 3 23 61 17 12 5 0 0 0 0 0 0 0 0 0 0 0 0 0 0 0 0 0 0 0 0 0 0 0 0 0 0 0 0 0 0 0 0 0
0 20 0 5 28 47 63 79 26 10 0 0 0 0 0 0 0 0 0 0 0 0 0 0 0 0 0 0 0 0 0 0 0 0 0 0 0 0 0 0 0 0 0
CIN
0 -256 -100 -107 -109 -31 -10 -68 -36 -58 -45 -44 -41 -30 0 0 0 -1 0 0 0 0 -1 -2 0 0 -60 -199 -240 0 -122 -234 -84 -2 0 0 0 0 0 -2 -6 -1 0
0 -225 -112 -97 -111 -128 -10 -81 -33 -7 -38 -60 -8 -3 0 -1 0 0 0 0 -1 0 0 0 -1 0 0 0 0 0 0 -2 -6 0 -1 -1 0 0 0 0 -1 0 0
-443 -197 -107 -81 -74 -90 -166 -77 -45 -4 -14 -48 -2 -4 -3 0 0 0 0 0 0 0 0 -1 -1 0 0 0 0 0 0 0 0 0 0 0 -1 0 0 0 0 0 -1
-375 -185 -115 -79 -50 -55 -147 -89 -23 -6 -17 -61 -1 -4 -3 0 0 0 0 0 0 0 0 -1 0 0 0 0 0 0 0 0 0 0 0 -3 -1 0 -1 -3 -3 -2 -3
-290 -192 -120 -55 -24 -26 -90 -124 -19 -5 -17 -44 -31 -7 -1 0 0 -1 0 0 0 0 -1 0 0 0 0 0 0 0 0 0 0 0 0 0 -3 -1 0 -1 0 0 0
-218 -166 -131 -57 -14 -10 -48 -37 -10 -9 -6 -18 -30 -5 -2 0 0 0 0 0 0 0 0 0 0 0 0 0 0 -7 -11 -4 0 0 0 -10 -9 0 0 0 0 0 0
-172 -144 -119 -65 -25 -10 -34 -121 -8 -8 -20 -22 -71 -4 -4 -1 0 -1 0 -1 0 0 0 0 0 0 0 0 0 -9 -6 0 0 0 -10 -16 -10 -1 -1 0 0 0 0
-135 -116 -50 -45 -38 -57 -67 -94 -20 -4 -39 -56 -4 -3 -7 -1 0 0 0 0 -1 0 0 0 0 0 0 0 -9 -15 0 0 0 0 -17 -11 -3 -4 -2 0 0 0 0
-111 -96 -50 -25 -37 -76 -109 -98 -41 -46 -16 -7 -4 -3 -6 -3 -2 0 0 -1 0 0 0 0 -1 0 0 -7 -14 -19 0 0 0 0 0 -2 -1 -3 -1 -1 0 0 0
-98 -75 -53 -39 -46 -73 -101 -99 -81 -15 -1 -7 -5 -5 -16 -7 -6 -7 -1 -1 -3 0 -1 0 -1 0 0 -8 -20 0 0 0 0 0 0 0 -1 -1 0 0 0 0 0
-86 -78 -46 -62 -70 -100 -121 -114 -81 0 0 -7 -5 -12 -17 -14 -7 -6 -1 -2 -1 -2 -1 -2 -1 0 0 0 0 0 0 0 0 0 0 -1 -1 -1 0 0 0 0 0
-73 -83 -58 -74 -98 -115 -138 -10 -7 0 0 -8 -8 -15 -21 -11 -6 -1 -2 -1 -3 -2 -5 -3 0 0 0 0 0 0 0 0 0 0 0 -2 0 -1 -3 0 0 0 0
-39 -61 -63 -42 -69 -101 -4 -11 -10 0 -11 -6 -15 -14 -13 -8 -9 -5 -4 -6 -1 -4 -4 -1 0 0 0 0 0 0 0 0 0 0 0 0 0 0 -1 -1 0 0 0
-25 -1 -29 -32 -40 -70 -5 0 0 0 -2 -13 -11 -14 -9 -12 -6 -1 -6 0 0 0 0 0 0 0 0 0 0 0 0 0 0 0 0 0 0 0 -1 -1 0 -1 -1
0 -5 -1 -12 -57 -79 0 0 0 0 -2 -8 -10 -4 -8 -5 -8 0 0 0 0 0 0 0 0 0 0 0 0 0 0 0 0 0 0 0 0 0 0 -1 -1 0 -7
0 -2 -3 -25 -67 -23 0 0 0 0 0 0 -3 -9 0 -7 -13 -16 0 0 0 0 0 0 0 0 0 0 0 0 0 0 0 0 0 0 0 0 -2 0 0 0 -2
0 0 -78 -104 0 0 0 0 0 0 0 0 0 -4 0 -2 -3 0 0 0 0 0 0 0 0 0 0 0 0 0 0 0 0 0 0 0 0 0 0 -2 0 0 -1
0 0 0 -12 -115 0 0 0 0 0 0 0 0 0 -1 0 0 0 0 0 0 0 0 0 0 0 0 0 0 0 0 0 0 0 0 0 0 0 0 0 -1 0 0
0 0 -38 -13 -20 -4 0 -1 0 0 0 0 0 0 0 0 0 0 0 0 0 0 0 0 0 0 0 0 0 0 0 0 0 0 0 0 0 0 0 0 -13 0 -1
0 0 0 -23 -6 0 0 0 -62 0 0 0 0 0 0 0 0 0 0 0 0 0 0 0 0 0 0 0 0 0 0 0 0 0 0 0 0 0 0 0 0 0 0
-17 -42 0 -19 0 -3 -18 -19 -38 0 0 0 0 0 0 0 0 0 0 0 0 0 0 0 0 0 0 0 0 0 0 0 0 0 0 0 0 0 0 0 0 0 0
-11 0 -21 -2 -3 -1 -37 -14 -27 -65 -32 0 0 0 0 0 0 0 0 0 0 0 0 0 0 0 0 0 0 0 0 0 0 0 0 0 0 0 0 0 0 0 0
-25 0 0 -3 -12 -1 0 -4 -3 -28 -29 0 0 0 0 0 0 0 0 0 0 0 0 0 0 0 0 0 0 -12 0 0 0 0 0 0 0 0 0 0 0 0 0
0 0 0 -6 -3 0 -1 -3 -18 0 0 0 0 0 0 0 0 0 0 0 0 0 0 0 0 0 0 0 0 0 0 0 0 0 0 0 0 0 0 0 0 0 0
0 0 0 -55 -62 -17 -3 -5 -10 -48 0 0 -4 0 0 0 0 0 0 0 0 0 0 0 0 0 0 0 0 0 0 0 0 0 0 0 0 0 0 0 0 0 0
0 -43 -1 -37 -23 -44 -2 0 -16 -6 0 0 0 0 0 0 0 0 0 0 0 0 0 0 0 0 0 0 0 0 0 0 0 0 0 0 0 0 0 0 0 0 0
Wind_Speed
5 11 13 14 13 11 11 11 10 11 11 11 11 10 9 9 9 10 10 10 11 11 12 13 12 12 12 11 10 9 9 9 10 11 12 13 13 14 15 16 16 17 18
6 10 14 13 14 12 11 11 11 10 11 10 9 8 9 8 8 8 10 11 11 13 13 13 13 12 10 9 9 9 9 10 10 11 12 13 14 15 16 16 16 16 17
8 11 12 12 13 13 12 11 11 10 10 9 9 7 8 8 9 7 9 10 11 13 13 14 13 13 12 10 10 9 9 9 10 11 12 13 14 16 17 17 18 18 17
9 11 11 12 13 13 13 12 11 11 11 10 9 7 6 6 7 7 7 9 10 12 14 16 16 14 12 11 10 9 9 9 10 11 12 13 14 15 15 16 16 16 17
9 10 11 12 13 13 13 13 11 11 10 10 9 7 6 5 5 4 6 7 9 12 15 16 17 16 15 12 10 10 12 10 10 11 12 13 13 14 15 15 16 16 17
10 10 11 13 13 12 13 13 11 12 10 10 9 8 6 6 5 4 4 5 5 9 13 14 15 15 15 13 12 12 12 12 11 11 12 12 13 14 15 15 16 16 17
11 10 12 13 13 12 12 12 11 11 9 8 7 7 7 6 6 5 4 3 4 6 8 11 13 13 13 13 13 13 13 12 10 10 10 11 12 13 15 15 16 16 17
13 13 14 13 13 13 12 12 11 11 9 8 8 7 8 7 8 7 5 4 2 3 5 7 9 10 10 12 14 14 13 12 11 9 9 10 11 13 14 15 16 16 17
14 15 16 15 14 13 13 13 12 11 10 9 9 10 8 9 9 9 8 6 4 2 1 3 5 7 8 11 13 13 13 12 11 10 8 9 10 12 14 14 15 15 16
16 16 17 17 16 15 13 13 12 12 10 10 10 11 11 10 9 10 10 8 7 4 4 1 2 5 6 8 10 13 12 11 10 9 8 8 9 11 12 13 14 14 16
18 19 19 19 19 19 15 14 13 12 11 10 10 11 11 12 11 10 11 9 9 8 5 3 4 3 3 4 7 9 10 9 8 8 7 6 8 10 11 12 13 14 15
23 21 21 22 22 20 18 16 15 13 12 11 11 12 13 12 12 11 11 10 10 10 7 5 5 5 5 4 2 4 5 6 7 7 7 6 6 8 9 11 12 14 15
31 25 24 24 23 22 20 19 18 15 14 13 12 12 13 13 13 12 12 11 11 9 9 8 7 7 5 3 1 1 2 3 5 5 6 4 4 5 6 8 10 12 15
37 31 26 26 25 26 23 21 20 18 16 15 14 13 13 14 15 14 13 14 12 10 10 10 10 9 7 5 4 4 4 4 4 4 5 4 4 3 4 6 7 10 14
38 36 28 27 28 25 25 23 22 20 18 16 15 15 14 14 15 15 15 15 14 11 11 11 12 11 9 8 8 6 6 7 7 6 6 6 5 6 3 5 6 8 12
43 32 33 30 28 25 27 25 23 22 19 17 16 16 15 16 15 15 15 15 15 13 12 11 11 11 11 11 11 10 9 11 11 11 11 11 10 9 9 6 6 8 13
44 45 44 31 30 28 30 28 25 23 20 20 19 18 16 15 16 15 15 15 16 15 14 13 13 14 14 14 14 14 13 13 15 15 15 15 15 14 13 13 9 10 13
40 40 41 30 32 31 25 26 27 25 23 22 20 17 16 16 15 15 15 16 17 16 15 14 13 15 15 15 17 16 16 16 18 18 18 18 18 17 17 17 14 13 16
42 41 48 40 28 28 23 23 30 27 23 23 20 18 15 15 15 14 15 16 15 17 17 16 16 16 17 18 18 19 19 19 21 21 21 20 20 20 20 20 18 19 19
42 37 41 44 29 28 25 23 25 28 26 24 22 21 17 16 15 15 16 16 15 16 16 16 17 17 19 18 19 21 22 23 24 24 23 23 22 22 22 22 22 22 22
39 38 39 41 28 25 16 22 25 29 27 25 23 20 18 17 17 17 17 16 15 16 15 14 16 17 20 17 20 24 26 26 26 25 25 25 24 24 23 23 24 24 25
40 35 40 41 37 23 20 17 17 28 29 25 25 23 20 19 19 18 17 17 15 18 17 17 18 19 21 18 23 26 31 30 28 27 26 26 26 26 25 25 26 26 27
39 36 31 35 35 21 22 17 16 20 23 23 24 24 17 23 22 20 19 18 18 18 20 19 20 20 21 21 22 25 29 31 30 26 25 25 27 27 27 27 27 28 28
39 34 29 27 29 19 16 20 19 17 14 21 19 19 17 13 14 15 20 19 20 22 21 21 20 22 22 24 26 27 30 31 34 39 30 28 27 29 30 31 30 31 31
37 33 31 25 25 28 23 17 18 19 19 16 14 14 12 12 12 14 15 14 15 17 19 21 24 25 26 25 24 27 25 28 29 30 40 33 31 29 29 30 31 33 33
31 33 26 25 22 21 25 18 21 20 19 16 15 15 15 14 15 13 13 16 17 17 19 19 22 25 24 25 25 27 26 29 30 30 36 38 40 36 33 32 33 34 33
Wind_Direction
237 166 154 147 146 143 136 134 132 127 122 118 115 113 112 105 99 91 82 73 74 70 71 72 70 70 67 62 51 32 16 2 32 30 29 28 29 30 32 32 30 29 32
193 174 160 155 152 150 145 141 138 137 131 130 123 120 118 113 105 95 85 81 77 79 79 78 76 72 63 53 46 36 26 28 27 25 26 32 35 38 37 32 32 31 28
194 181 169 161 158 155 151 147 144 144 138 138 135 135 128 121 113 104 92 85 83 84 82 83 80 77 71 61 51 36 31 26 24 26 24 30 40 47 43 37 34 32 29
173 179 178 172 165 161 157 153 149 146 142 141 143 150 147 139 123 114 99 91 89 88 90 92 90 84 75 65 51 35 36 29 31 38 38 41 44 42 32 25 20 18 16
192 189 188 178 175 168 165 158 156 150 147 144 147 153 169 165 145 133 110 99 94 93 96 96 95 92 86 70 44 39 67 51 50 41 46 43 35 30 26 20 20 17 17
212 197 189 179 181 177 171 164 164 157 156 153 154 157 173 175 178 182 133 112 99 95 97 97 96 94 89 77 62 66 68 67 57 50 50 47 31 30 24 22 15 14 14
216 208 193 187 182 180 179 171 171 168 166 172 177 168 170 192 199 188 214 155 114 96 90 94 94 92 85 81 82 77 77 74 63 54 43 40 37 30 20 16 15 17 17
230 234 220 195 198 186 186 183 179 181 180 197 201 204 177 207 220 219 205 211 170 105 87 84 87 82 78 80 92 90 83 81 69 53 39 37 38 28 21 18 19 19 19
241 235 229 220 206 197 191 189 185 185 191 196 215 223 202 214 226 231 230 229 233 225 87 69 73 72 70 78 95 93 91 84 78 67 43 31 31 21 19 23 23 22 19
241 234 230 225 223 217 208 200 193 189 192 197 208 221 220 219 223 237 239 240 244 247 267 330 27 58 64 74 90 101 95 83 72 64 44 30 26 14 20 19 18 15 12
243 236 229 227 228 232 225 212 205 196 196 209 220 217 218 230 227 235 244 245 249 254 263 287 313 356 20 55 94 100 96 86 70 57 45 35 13 9 10 14 10 9 6
243 237 230 229 230 230 230 224 220 208 210 218 223 223 229 230 233 236 242 245 253 259 262 275 299 309 321 332 49 85 79 82 73 55 54 72 19 9 7 2 1 359 359
249 242 232 230 227 228 231 229 229 225 222 229 221 222 232 231 235 238 243 250 254 259 267 275 288 297 304 314 338 352 27 50 61 55 43 65 52 21 8 0 355 353 349
252 244 233 227 227 228 232 230 230 226 230 231 230 225 228 235 237 237 242 249 254 259 266 274 282 288 292 293 293 300 309 331 354 12 25 36 10 15 4 357 354 350 343
257 246 233 226 225 223 228 229 230 228 230 231 231 232 230 238 239 239 244 250 255 259 266 273 280 283 283 284 287 289 292 301 313 327 340 341 337 336 314 330 333 336 341
253 260 234 227 222 218 225 225 228 230 231 231 234 235 232 240 240 239 244 249 255 260 267 273 277 282 283 284 285 288 290 295 300 307 315 320 319 316 316 301 309 320 331
257 255 241 222 221 220 222 222 225 229 230 232 236 239 237 238 241 241 244 249 254 260 266 273 278 283 284 286 286 288 291 293 296 300 306 311 314 313 311 312 299 307 321
256 253 258 224 226 217 207 220 226 228 230 233 236 238 237 242 241 242 246 252 256 260 265 269 273 280 283 285 287 289 291 293 295 298 302 306 308 309 309 307 303 303 313
250 251 242 246 230 218 218 223 225 227 229 234 236 238 237 240 242 243 249 254 255 260 264 267 274 278 281 286 289 290 291 292 294 296 298 301 304 305 306 307 305 306 307
246 253 249 245 251 224 215 227 229 230 231 234 237 240 240 243 242 247 254 256 257 261 263 267 272 278 285 284 290 291 292 293 293 294 296 298 300 301 302 302 302 302 304
244 244 241 241 252 241 220 224 225 228 232 235 240 240 241 243 246 247 255 256 258 261 260 263 274 276 283 286 292 294 294 293 293 293 294 294 295 295 297 297 298 299 300
239 243 240 242 248 220 224 219 229 231 235 238 241 244 245 245 248 248 252 256 258 264 267 266 271 277 282 282 290 296 295 299 296 291 291 291 291 292 292 292 293 295 297
239 240 248 245 241 236 228 231 230 229 240 240 243 247 244 251 252 253 253 260 260 265 265 267 271 268 279 282 286 293 299 297 305 306 299 294 293 292 293 293 292 293 295
241 241 250 251 255 259 236 208 197 218 213 242 239 246 248 222 228 237 254 259 267 266 269 270 267 272 279 282 287 286 290 297 299 301 304 303 298 294 295 296 295 295 295
241 243 247 256 262 262 254 238 235 235 240 243 236 235 222 229 228 243 242 248 252 259 266 273 271 270 275 282 283 291 285 289 296 296 300 304 307 303 300 299 297 296 296
240 240 245 249 261 263 265 277 247 233 240 242 247 244 250 252 255 248 253 263 267 266 266 269 272 272 268 274 281 284 288 296 294 295 298 299 302 304 304 303 301 300 300